Torna al catalogo

STARLINK-33707

AttivoComunicazioniVLEO
NORAD 63401·PAYLOAD·🇺🇸 United States

Lanciato Mar 31, 2025 da Cape Canaveral Space Force Station

Loading…

Prossimi Passaggi (prossime 24 ore)

TLE

AggiornatoSource: CelesTrak SupGP

Epoca: Sep 14, 2026, 15:27 UTC

1 63401C 25065C   26257.64423611  .00013813  00000+0  50034-3 0  2578
2 63401  43.0021 119.8421 0001477 259.6243 314.5401 15.27569352    16

Traccia STARLINK-33707 in tempo reale con AllMySat

Download on the App Store